Preview of NWS' New Version of Forecast
This preview is not operational and should not be used for support decisions.

Regional Weather Roundup (RWR)

Issued by National Weather Service (NWS)

                            
000
ASUS45 KABQ 250401
RWRNM 
NEW MEXICO REGIONAL WEATHER ROUNDUP
NATIONAL WEATHER SERVICE ALBUQUERQUE NM
1000 PM MDT SAT AUG 24 2019

NOTE: "FAIR" MEANS FEW OR NO CLOUDS BELOW 12,000 FEET AGL WITH NO
       SIGNIFICANT WEATHER OR OBSTRUCTIONS TO VISION.

      THIS PRODUCT IS RELEASED AS TWO VERSIONS.  ONE VERSION NEAR
      THE TOP OF THE HOUR CONTAINING PRELIMINARY DATA FROM ALBUQUERQUE
      AND OTHER STATIONS.  A FINAL VERSION WITH ADDITIONAL DATA IS 
      ISSUED ABOUT 10 MINUTES AFTER THE HOUR.
 
NMZ501-503-504-510>518-250500-
NORTHWEST PLATEAU/NORTHCENTRAL MOUNTAINS
  
CITY           SKY/WX    TMP DP  RH WIND       PRES   REMARKS
FARMINGTON     FAIR      79  27  14 CALM      30.09R                  
LOS ALAMOS       N/A     76  24  14 W17       30.24F                  
SANTA FE       FAIR      71  28  20 NW8       30.16R                  
TAOS           FAIR      63  34  33 E7        30.24R                  
ANGEL FIRE     FAIR      52  35  53 CALM      30.35R                  

$$
NMZ402-403-502-505>509-250500-
WESTCENTRAL MOUNTAINS/SOUTHWEST MOUNTAINS
  
CITY           SKY/WX    TMP DP  RH WIND       PRES   REMARKS
GALLUP         FAIR      72  29  20 SW3       30.24R                  
GRANTS         FAIR      74  30  19 W7        30.24R                  
SILVER CITY    FAIR      72  55  56 NW7       30.18R                  

$$
NMZ407-409-411-412-250500-
SOUTHERN DESERTS
  
CITY           SKY/WX    TMP DP  RH WIND       PRES   REMARKS
DEMING         FAIR      83  58  42 W14       30.08R                  
LAS CRUCES     FAIR      84  49  29 SW9       30.08R                  
ALAMOGORDO     FAIR      84  48  28 SE9       30.05R                  
T OR C         FAIR      86  50  28 SW6       30.07R                  

$$
NMZ519>523-250500-
CENTRAL VALLEYS/CENTRAL HIGHLANDS
  
CITY           SKY/WX    TMP DP  RH WIND       PRES   REMARKS
ALBUQUERQUE    FAIR      84  32  15 SW3       30.09R                  
CLINES CORNERS FAIR      67  26  21 W8        30.24R                  
BELEN          FAIR      77  28  16 W8        30.08R                  
SOCORRO        FAIR      85  39  19 W7        30.06R                  

$$
NMZ524>526-539-540-250500-
SOUTHCENTRAL MOUNTAINS
  
CITY           SKY/WX    TMP DP  RH WIND       PRES   REMARKS
RUIDOSO        FAIR      72  39  30 SW10      30.25S                  

$$
NMZ527>531-250500-
NORTHEAST HIGHLANDS/NORTHEAST PLAINS
  
CITY           SKY/WX    TMP DP  RH WIND       PRES   REMARKS
LAS VEGAS      FAIR      66  35  31 W6        30.19R                  
RATON          FAIR      68  49  50 N10       30.14R                  
CLAYTON        FAIR      69  63  81 S10       30.03R                  

$$
NMZ532>537-250500-
EASTCENTRAL PLAINS
  
CITY           SKY/WX    TMP DP  RH WIND       PRES   REMARKS
SANTA ROSA     FAIR      77  50  38 SE5       30.00R                  
TUCUMCARI      FAIR      78  54  43 S6        29.92R                  
CANNON AFB     FAIR      78  61  55 SE14      30.02R                  
CLOVIS AIRPORT FAIR      76  63  64 S13       30.02R                  

$$
NMZ028-029-538-250500-
SOUTHEAST PLAINS
  
CITY           SKY/WX    TMP DP  RH WIND       PRES   REMARKS
ROSWELL        FAIR      86  50  28 S8        29.94R                  
ARTESIA        FAIR      88  55  33 SW15      29.97S                  
CARLSBAD       FAIR      88  54  31 S12       29.95R                  
HOBBS          FAIR      82  61  47 SE16      30.00R                  


$$